Regional Weather Roundup
Issued by NWS Portland, ME

Current Version | Previous Version | Text Only | Print | Product List | Glossary Off
Versions: 1 2 3 4 5 6 7 8 9 10 11 12 13 14 15 16 17 18 19 20 21 22 23 24 25 26 27 28 29 30 31 32 33 34 35 36 37 38 39 40 41 42 43 44 45 46 47 48 49 50
659 ASUS41 KGYX 160610 RWRGYX WEATHER ROUNDUP FOR MAINE AND NEW HAMPSHIRE NATIONAL WEATHER SERVICE GRAY ME 200 AM EDT THU AUG 16 2018 MEZ002-005-006-010-012-015-018-020-021-024-026-027-029-160700- MAINE CITY SKY/WX TMP DP RH WIND PRES REMARKS PORTLAND FAIR 72 70 93 W5 29.87S 6HR MIN TEMP: 71; 6HR MAX TEMP: 74; 6HR PCP: TRACE; SANFORD FAIR 73 69 87 NW3 29.89F BAR HARBOR TSTM 70 64 83 W8 29.89R WISCASSET FAIR 68 67 96 CALM 29.87F 6HR MIN TEMP: 67; 6HR MAX TEMP: 71; ROCKLAND FOG 64 64 100 CALM 29.86F VSB 1 FRYEBURG FAIR 70 67 90 SW5 29.89F 6HR MIN TEMP: 68; 6HR MAX TEMP: 77; 6HR PCP: 0.01; LEWISTONAUBURN FAIR 70 68 93 VRB3 29.88S AUGUSTA FAIR 70 68 93 NW6 29.88S 6HR MIN TEMP: 70; 6HR MAX TEMP: 74; WATERVILLE FAIR 67 66 97 CALM 29.84F BANGOR TSTM 69 64 84 SW7 29.87S 6HR MIN TEMP: 69; 6HR MAX TEMP: 73; 6HR PCP: 0.63; GREENVILLE N/A 66 62 87 N7 29.88F 6HR MIN TEMP: 66; 6HR MAX TEMP: 70; 6HR PCP: 0.03; MILLINOCKET CLOUDY 71 61 70 NW6 29.88R 6HR MIN TEMP: 68; 6HR MAX TEMP: 71; HOULTON MOCLDY 62 61 96 N6 29.84S 6HR MIN TEMP: 62; 6HR MAX TEMP: 66; PRESQUE ISLE FAIR 57 56 96 CALM 29.87S 6HR MIN TEMP: 57; 6HR MAX TEMP: 65; FRENCHVILLE MOCLDY 59 52 77 NW12 29.87R 6HR MIN TEMP: 59; 6HR MAX TEMP: 67; CARIBOU CLOUDY 61 55 81 CALM 29.85S 6HR MIN TEMP: 60; 6HR MAX TEMP: 68; $$ NHZ002-005-008-009-011-012-014-160700- NEW HAMPSHIRE CITY SKY/WX TMP DP RH WIND PRES REMARKS PORTSMOUTH MOCLDY 73 68 83 W7 29.87F ROCHESTER FAIR 74 70 87 W5 29.89F 6HR MIN TEMP: 72; 6HR MAX TEMP: 79; MANCHESTER NOT AVBL CONCORD FAIR 73 69 87 CALM 29.91F 6HR MIN TEMP: 72; 6HR MAX TEMP: 79; 6HR PCP: TRACE; LACONIA FAIR 73 68 84 W8 29.93S PLYMOUTH FAIR 69 65 86 W5 29.93S BERLIN FAIR 65 64 97 CALM 29.94F 6HR MIN TEMP: 65; 6HR MAX TEMP: 71; 6HR PCP: 0.19; WHITEFIELD CLOUDY 67 65 93 CALM 29.94F 6HR MIN TEMP: 66; 6HR MAX TEMP: 74; 6HR PCP: 0.05; JAFFREY NOT AVBL LEBANON FAIR 70 67 90 CALM 29.94S 6HR MIN TEMP: 69; 6HR MAX TEMP: 78; 6HR PCP: TRACE; MT WASHINGTON FOG 54 54 100 NW37G44 N/A VSB 1/16 6HR MIN TEMP: 51; 6HR MAX TEMP: 55; 6HR PCP: 0.33; $$ VTZ005-007-008-160700- VERMONT CITY SKY/WX TMP DP RH WIND PRES REMARKS ST JOHNSBURY N/A 66 66 100 MISG 29.93S MONTPELIER CLOUDY 66 66 100 CALM 30.00F BURLINGTON CLOUDY 71 67 87 CALM 29.94S $$ MAZ007-012-024-CTZ003-RIZ002-NYZ038-NYZ072-160700- SOUTHERN NEW ENGLAND AND NY CITY SKY/WX TMP DP RH WIND PRES REMARKS BOSTON FAIR 80 68 66 W12 29.90F WORCESTER FAIR 70 67 90 W9 29.97S NANTUCKET FAIR 72 70 93 W8 29.93S PROVIDENCE FAIR 75 69 81 W6 29.93R HARTFORD FAIR 73 69 87 SW6 29.95S ALBANY MOCLDY 73 67 81 S3 29.97S NEW YORK CITY FAIR 83 69 62 W8 29.97S $$ ANZ081-ANZ082-ANZ150-NHZ014-MEZ023>029-160700- COASTAL MARINE OBSERVATIONS STATION/POSITION TIME TEMP WIND PRES WAVE AIR SEA DIR/SP/G HT/PER (UTC) (F) (DEG/KT/KT) (MB) (FT/S) MOUNT DESERT ROC 0600 64 170/ 17/ 18 1010.8F MATINICUS ROCK 0500 67 230/ 4/ 5 1010.9F ISLE OF SHOALS 0500 75 250/ 8/ 8 1011.5R JEFFREYS LEDGE 0536 67 N/A 2/ 6 $$ .............KEY.............. WCI - WIND CHILL TC - TEMPERATURE IN CELSIUS VSB - VISIBILITY IN MILES HX - HEAT INDEX FAIR- INDICATES FEW OR NO CLOUDS BELOW 12,000 FT, WITH NO SIGNIFICANT WEATHER AND/OR OBSTRUCTIONS TO VISIBILITY.

USA.gov is the U.S. government's official web portal to all federal, state and local government web resources and services.